Regional Weather Roundup
Issued by NWS State College, PA

Home | Current Version | Previous Version | Text Only | Print | Product List | Glossary Off
Versions: 1 2 3 4 5 6 7 8 9 10 11 12 13 14 15 16 17 18 19 20 21 22 23 24 25 26 27 28 29 30 31 32 33 34 35 36 37 38 39 40 41 42 43 44 45 46 47 48 49 50

487
ASUS41 KCTP 051403
RWRCTP

REGIONAL WEATHER ROUNDUP
NATIONAL WEATHER SERVICE STATE COLLEGE PA
900 AM EST FRI FEB 05 2016

Note: "fair" indicates few or no clouds below 12,000 feet with no
significant weather and/or obstructions to visibility.

* = STATION THAT DOES NOT REPORT PRECIPITATION /E.G. RAIN...SNOW...ETC/
    THUNDER OR FOG.

PAZ002>004-007>009-013>016-020>023-029>032-051500-
WESTERN PENNSYLVANIA

CITY           SKY/WX    TMP DP  RH WIND       PRES   REMARKS
ERIE           PTSUNNY   29  17  61 W12       30.33R
MEADVILLE      CLOUDY    25  17  72 W8G16     30.28S
FRANKLIN*      CLOUDY    25  18  74 NW8       30.29R
NEW CASTLE     FAIR      25  19  78 W8        30.33S
BEAVER COUNTY  SUNNY     23  18  80 W5        30.32R
BUTLER*        MOSUNNY   25  18  74 NW7       30.34R
PITTSBURGH INT FLURRIES  26  17  68 NW13      30.32R WCI  15
PITTSBURGH     FLURRIES  27  18  69 NW10G17   30.31R
INDIANA*       CLOUDY    27  23  86 NW8       30.29R
LATROBE        LGT SNOW  27  25  93 W9        30.31R
WASHINGTON CO* SUNNY     27  16  63 W9        30.33R
$$

PAZ004>006-010>012-017>019-024>028-033>037-041-042-045-046-049>053-051500-
CENTRAL PENNSYLVANIA

CITY           SKY/WX    TMP DP  RH WIND       PRES   REMARKS
BRADFORD       SNOW      25  22  88 NW12      30.17R VSB 1/4 WCI  14
DUBOIS         CLOUDY    26  19  74 NW12      30.20R
CLEARFIELD     FLURRIES  29  20  69 NW10      30.20S
JOHNSTOWN      LGT SNOW  23  18  81 NW14      30.18R WCI  11
ALTOONA        CLOUDY    28  20  71 NW16G24   30.21R
STATE COLLEGE  PTSUNNY   32  21  64 NW14      30.19R
WILLIAMSPORT   CLOUDY    37  22  54 NW12G20   30.17R
SELINSGROVE    CLOUDY    36  24  62 N12       30.17F
FT INDIANTOWN  CLOUDY    38  23  56 NW10G21   30.15R
CAPITAL CITY   CLOUDY    39  22  50 NW10G20   30.17R
HARRISBURG     CLOUDY    38  23  55 N10G24    30.17R
YORK           CLOUDY    37  24  59 NW7       30.17R
$$

PAZ038>040-043-044-047-048-054-055-060>062-067>071-051500-
EASTERN PENNSYLVANIA

CITY           SKY/WX    TMP DP  RH WIND       PRES   REMARKS
SCRANTON       CLOUDY    33  22  63 N10G20    30.13R
MOUNT POCONO   CLOUDY    29  17  61 N14G25    30.05R
ALLENTOWN      CLOUDY    37  22  54 N8        30.11R
QUAKERTOWN*    CLOUDY    36  23  60 N6        30.11R
READING        CLOUDY    37  22  54 NW7       30.15R
LANCASTER      CLOUDY    36  23  59 N9        30.16R
COATESVILLE    CLOUDY    34  30  86 NW7       30.15R
POTTSTOWN      CLOUDY    33  32  96 W3        30.16R
BLUE BELL        N/A     32  30  93 CALM      30.14R
DOYLESTOWN     CLOUDY    31  29  92 NE6       30.11R
WILLOW GROVE   NOT AVBL
NORTH PHILA    CLOUDY    35  30  82 N12       30.14R
PHILADELPHIA   CLOUDY    36  31  81 N12       30.14R
$$




USA.gov is the U.S. government's official web portal to all federal, state and local government web resources and services.